Hourly Weather Lobynskoe

Today, 21 September, Monday

Time Temperature Precipitation Wind Pressure Humidity
00:00 +5°C° 0 mm 3 mps 745 mmHg 86%
01:00 +5°C° 0 mm 3 mps 745 mmHg 86%
02:00 +5°C° 0 mm 3 mps 745 mmHg 87%
03:00 +4°C° 0 mm 3 mps 745 mmHg 88%
04:00 +4°C° 0 mm 3 mps 745 mmHg 88%
05:00 +4°C° 0 mm 4 mps 745 mmHg 89%
06:00 +4°C° 0 mm 4 mps 745 mmHg 90%
07:00 +6°C° 0 mm 5 mps 745 mmHg 86%
08:00 +7°C° 0 mm 5 mps 745 mmHg 81%
09:00 +8°C° 0 mm 6 mps 745 mmHg 77%
10:00 +9°C° 0 mm 6 mps 745 mmHg 72%
11:00 +10°C° 0 mm 6 mps 745 mmHg 68%
12:00 +11°C° 0 mm 6 mps 744 mmHg 63%
13:00 +13°C° 0 mm 6 mps 744 mmHg 62%
14:00 +14°C° 0 mm 6 mps 744 mmHg 60%
15:00 +14°C° 0 mm 6 mps 744 mmHg 59%
16:00 +14°C° 0 mm 6 mps 744 mmHg 63%
17:00 +13°C° 0 mm 5 mps 744 mmHg 68%
18:00 +12°C° 0 mm 4 mps 744 mmHg 72%
19:00 +11°C° 0 mm 4 mps 744 mmHg 76%
20:00 +11°C° 0 mm 4 mps 744 mmHg 80%
21:00 +10°C° 0 mm 4 mps 744 mmHg 84%
22:00 +10°C° 0 mm 4 mps 744 mmHg 86%
23:00 +10°C° 0 mm 4 mps 744 mmHg 89%

Tomorrow, 22 September, Tuesday

Time Temperature Precipitation Wind Pressure Humidity
00:00 +10°C° 0 mm 4 mps 744 mmHg 91%
01:00 +10°C° 0 mm 4 mps 744 mmHg 89%
02:00 +11°C° 0 mm 4 mps 744 mmHg 88%
03:00 +11°C° 0 mm 4 mps 744 mmHg 86%
04:00 +11°C° 0 mm 4 mps 744 mmHg 88%
05:00 +9°C° 0 mm 5 mps 744 mmHg 91%
06:00 +9°C° 0 mm 5 mps 744 mmHg 93%
07:00 +10°C° 0 mm 5 mps 744 mmHg 89%
08:00 +11°C° 0 mm 6 mps 744 mmHg 85%
09:00 +12°C° 0 mm 7 mps 744 mmHg 80%
10:00 +15°C° 0 mm 7 mps 744 mmHg 75%
11:00 +16°C° 0 mm 7 mps 744 mmHg 69%
12:00 +18°C° 0 mm 7 mps 744 mmHg 63%
13:00 +18°C° 0 mm 7 mps 743 mmHg 61%
14:00 +18°C° 0 mm 7 mps 743 mmHg 59%
15:00 +20°C° 0 mm 7 mps 743 mmHg 57%
16:00 +18°C° 0 mm 7 mps 743 mmHg 61%
17:00 +17°C° 0 mm 6 mps 743 mmHg 65%
18:00 +16°C° 0 mm 5 mps 743 mmHg 69%
19:00 +15°C° 0 mm 5 mps 743 mmHg 73%
20:00 +14°C° 0 mm 5 mps 743 mmHg 76%
21:00 +13°C° 0 mm 5 mps 743 mmHg 80%
22:00 +13°C° 0 mm 4 mps 743 mmHg 83%
23:00 +12°C° 0 mm 4 mps 743 mmHg 86%

Day after tomorrow, 23 September, Wednesday

Time Temperature Precipitation Wind Pressure Humidity
00:00 +12°C° 0 mm 4 mps 743 mmHg 89%
01:00 +11°C° 0 mm 3 mps 744 mmHg 90%
02:00 +11°C° 0 mm 3 mps 744 mmHg 91%
03:00 +11°C° 0 mm 3 mps 744 mmHg 93%
04:00 +10°C° 0 mm 3 mps 744 mmHg 93%
05:00 +10°C° 0 mm 2 mps 744 mmHg 93%
06:00 +10°C° 0 mm 2 mps 744 mmHg 93%
07:00 +12°C° 0 mm 2 mps 744 mmHg 88%
08:00 +14°C° 0 mm 2 mps 745 mmHg 83%
09:00 +15°C° 0 mm 2 mps 745 mmHg 78%
10:00 +17°C° 0 mm 2 mps 745 mmHg 72%
11:00 +18°C° 0 mm 2 mps 745 mmHg 66%
12:00 +20°C° 0 mm 2 mps 745 mmHg 60%
13:00 +21°C° 0 mm 2 mps 745 mmHg 58%
14:00 +21°C° 0 mm 3 mps 745 mmHg 57%
15:00 +22°C° 0 mm 3 mps 745 mmHg 55%
16:00 +20°C° 0 mm 3 mps 744 mmHg 61%
17:00 +19°C° 0 mm 2 mps 744 mmHg 66%
18:00 +18°C° 0 mm 2 mps 744 mmHg 72%
19:00 +17°C° 0 mm 2 mps 744 mmHg 74%
20:00 +16°C° 0 mm 2 mps 744 mmHg 76%
21:00 +15°C° 0 mm 2 mps 744 mmHg 78%
22:00 +15°C° 0 mm 2 mps 744 mmHg 77%
23:00 +15°C° 0 mm 2 mps 744 mmHg 76%

24 September, Thursday

Time Temperature Precipitation Wind Pressure Humidity
00:00 +14°C° 0 mm 2 mps 744 mmHg 75%
01:00 +14°C° 0 mm 2 mps 744 mmHg 74%
02:00 +14°C° 0 mm 2 mps 745 mmHg 73%
03:00 +14°C° 0 mm 1 mps 745 mmHg 73%
04:00 +13°C° 0 mm 1 mps 745 mmHg 73%
05:00 +13°C° 0 mm 1 mps 745 mmHg 73%
06:00 +13°C° 0 mm 1 mps 745 mmHg 73%
07:00 +14°C° 0 mm 1 mps 745 mmHg 69%
08:00 +15°C° 0 mm 2 mps 745 mmHg 66%
09:00 +17°C° 0 mm 2 mps 745 mmHg 63%
10:00 +18°C° 0 mm 2 mps 746 mmHg 58%
11:00 +20°C° 0 mm 2 mps 746 mmHg 53%
12:00 +21°C° 0 mm 2 mps 746 mmHg 48%
13:00 +23°C° 0 mm 2 mps 746 mmHg 46%
14:00 +23°C° 0 mm 2 mps 746 mmHg 44%
15:00 +24°C° 0 mm 2 mps 746 mmHg 43%
16:00 +21°C° 0 mm 2 mps 746 mmHg 48%
17:00 +20°C° 0 mm 2 mps 746 mmHg 52%
18:00 +19°C° 0 mm 1 mps 745 mmHg 57%
19:00 +19°C° 0 mm 1 mps 745 mmHg 59%
20:00 +17°C° 0 mm 2 mps 746 mmHg 60%
21:00 +16°C° 0 mm 2 mps 746 mmHg 62%
22:00 +15°C° 0 mm 2 mps 746 mmHg 64%
23:00 +15°C° 0 mm 2 mps 746 mmHg 66%

25 September, Friday

Time Temperature Precipitation Wind Pressure Humidity
00:00 +15°C° 0 mm 2 mps 746 mmHg 68%
01:00 +14°C° 0 mm 2 mps 746 mmHg 68%
02:00 +14°C° 0 mm 2 mps 746 mmHg 68%
03:00 +14°C° 0 mm 2 mps 746 mmHg 68%
04:00 +13°C° 0 mm 2 mps 746 mmHg 70%
05:00 +13°C° 0 mm 2 mps 746 mmHg 72%
06:00 +13°C° 0 mm 2 mps 746 mmHg 74%
07:00 +14°C° 0 mm 2 mps 746 mmHg 70%
08:00 +15°C° 0 mm 2 mps 746 mmHg 67%
09:00 +17°C° 0 mm 3 mps 746 mmHg 64%
10:00 +18°C° 0 mm 3 mps 746 mmHg 60%
11:00 +20°C° 0 mm 3 mps 746 mmHg 55%
12:00 +21°C° 0 mm 3 mps 746 mmHg 51%
13:00 +22°C° 0 mm 4 mps 746 mmHg 49%
14:00 +22°C° 0 mm 4 mps 746 mmHg 47%
15:00 +23°C° 0 mm 4 mps 746 mmHg 46%
16:00 +21°C° 0 mm 4 mps 746 mmHg 51%
17:00 +20°C° 0 mm 3 mps 746 mmHg 56%
18:00 +19°C° 0 mm 3 mps 746 mmHg 61%
19:00 +18°C° 0 mm 3 mps 746 mmHg 62%
20:00 +17°C° 0 mm 3 mps 746 mmHg 63%
21:00 +15°C° 0 mm 4 mps 746 mmHg 64%
22:00 +15°C° 0 mm 4 mps 746 mmHg 65%
23:00 +14°C° 0 mm 4 mps 746 mmHg 66%

26 September, Saturday

Time Temperature Precipitation Wind Pressure Humidity
00:00 +14°C° 0 mm 4 mps 746 mmHg 67%
01:00 +13°C° 0 mm 4 mps 746 mmHg 67%
02:00 +13°C° 0 mm 4 mps 746 mmHg 67%
03:00 +12°C° 0 mm 4 mps 746 mmHg 68%
04:00 +12°C° 0 mm 4 mps 746 mmHg 66%
05:00 +12°C° 0 mm 4 mps 746 mmHg 63%
06:00 +12°C° 0 mm 4 mps 746 mmHg 61%
07:00 +12°C° 0 mm 4 mps 746 mmHg 58%
08:00 +13°C° 0 mm 4 mps 746 mmHg 55%
09:00 +14°C° 0 mm 5 mps 746 mmHg 52%
10:00 +15°C° 0 mm 5 mps 746 mmHg 50%
11:00 +16°C° 0 mm 5 mps 746 mmHg 48%
12:00 +19°C° 0 mm 5 mps 746 mmHg 47%
13:00 +19°C° 0 mm 5 mps 746 mmHg 47%
14:00 +19°C° 0 mm 6 mps 746 mmHg 48%
15:00 +20°C° 0 mm 6 mps 746 mmHg 48%
16:00 +19°C° 0 mm 5 mps 746 mmHg 52%
17:00 +17°C° 0 mm 5 mps 746 mmHg 56%
18:00 +17°C° 0 mm 4 mps 746 mmHg 59%
19:00 +17°C° 0 mm 4 mps 746 mmHg 58%
20:00 +16°C° 0 mm 5 mps 746 mmHg 57%
21:00 +16°C° 0 mm 5 mps 746 mmHg 56%
22:00 +15°C° 0 mm 5 mps 746 mmHg 55%
23:00 +15°C° 0 mm 5 mps 747 mmHg 54%
Show more